QPF
0.00 0.00 0.01 0.01 0.03 0.04 0.03 0.01 0.00 0.00 0.01 0.02 0.01 0.00 0.00 0.00 0.00 0.00 0.00 0.00 0.00 0.00 0.00 0.00 0.00 0.00 0.00 0.00 0.00 0.00 0.00 0.00 0.00 0.00 0.00 0.00 0.00 0.00 0.00 0.00 0.00 0.00 0.00 0.00
0.01 0.01 0.01 0.01 0.03 0.05 0.02 0.00 0.00 0.02 0.01 0.00 0.00 0.00 0.00 0.00 0.00 0.00 0.00 0.00 0.00 0.00 0.00 0.00 0.00 0.00 0.00 0.00 0.00 0.00 0.00 0.00 0.00 0.00 0.00 0.00 0.00 0.00 0.00 0.00 0.00 0.00 0.01 0.00
0.01 0.01 0.02 0.01 0.03 0.04 0.03 0.00 0.00 0.01 0.01 0.00 0.00 0.00 0.00 0.00 0.00 0.00 0.00 0.00 0.00 0.00 0.00 0.00 0.00 0.00 0.00 0.00 0.00 0.00 0.00 0.00 0.00 0.00 0.00 0.00 0.00 0.00 0.00 0.00 0.00 0.00 0.00 0.00
0.01 0.01 0.01 0.02 0.02 0.04 0.02 0.00 0.00 0.00 0.00 0.00 0.00 0.00 0.00 0.00 0.00 0.00 0.00 0.00 0.00 0.00 0.00 0.00 0.00 0.00 0.00 0.00 0.00 0.00 0.00 0.00 0.00 0.00 0.00 0.00 0.00 0.00 0.00 0.00 0.00 0.01 0.00 0.00
0.03 0.02 0.01 0.01 0.01 0.02 0.02 0.00 0.00 0.00 0.00 0.00 0.01 0.00 0.00 0.00 0.00 0.00 0.00 0.00 0.00 0.00 0.00 0.00 0.00 0.01 0.01 0.00 0.00 0.00 0.00 0.00 0.00 0.00 0.00 0.00 0.00 0.00 0.00 0.00 0.00 0.00 0.00 0.00
0.02 0.02 0.02 0.01 0.00 0.02 0.02 0.00 0.00 0.00 0.00 0.01 0.01 0.00 0.00 0.00 0.00 0.00 0.00 0.00 0.00 0.00 0.00 0.00 0.00 0.01 0.01 0.00 0.00 0.00 0.00 0.00 0.00 0.00 0.00 0.00 0.00 0.00 0.00 0.00 0.00 0.00 0.00 0.00
0.01 0.01 0.01 0.00 0.00 0.01 0.01 0.00 0.00 0.00 0.00 0.01 0.00 0.00 0.00 0.00 0.00 0.00 0.00 0.00 0.00 0.00 0.00 0.00 0.02 0.02 0.01 0.01 0.00 0.00 0.00 0.00 0.00 0.00 0.00 0.00 0.00 0.00 0.00 0.00 0.00 0.00 0.00 0.00
0.01 0.01 0.00 0.00 0.00 0.01 0.02 0.00 0.00 0.00 0.00 0.00 0.00 0.00 0.00 0.00 0.00 0.00 0.00 0.00 0.00 0.00 0.00 0.04 0.07 0.02 0.00 0.00 0.00 0.00 0.00 0.00 0.01 0.00 0.00 0.00 0.00 0.00 0.00 0.00 0.00 0.00 0.00 0.00
0.02 0.02 0.01 0.01 0.00 0.01 0.04 0.00 0.00 0.01 0.00 0.00 0.00 0.00 0.00 0.00 0.00 0.00 0.00 0.00 0.00 0.00 0.00 0.05 0.02 0.01 0.00 0.00 0.00 0.00 0.00 0.00 0.01 0.01 0.00 0.00 0.00 0.00 0.00 0.00 0.00 0.00 0.00 0.00
0.01 0.02 0.02 0.02 0.01 0.02 0.05 0.01 0.00 0.01 0.01 0.00 0.01 0.01 0.00 0.00 0.00 0.00 0.00 0.00 0.00 0.00 0.01 0.01 0.02 0.01 0.00 0.00 0.00 0.00 0.00 0.00 0.00 0.01 0.01 0.00 0.00 0.00 0.00 0.00 0.00 0.00 0.00 0.00
0.01 0.02 0.02 0.03 0.03 0.03 0.05 0.01 0.00 0.01 0.01 0.01 0.01 0.00 0.00 0.00 0.00 0.00 0.00 0.01 0.00 0.01 0.02 0.00 0.01 0.01 0.00 0.00 0.00 0.00 0.00 0.00 0.01 0.03 0.02 0.00 0.00 0.00 0.00 0.00 0.00 0.00 0.00 0.00
0.01 0.01 0.02 0.03 0.04 0.04 0.03 0.01 0.01 0.02 0.02 0.03 0.03 0.00 0.00 0.00 0.00 0.01 0.00 0.00 0.00 0.00 0.02 0.01 0.01 0.00 0.00 0.00 0.00 0.00 0.00 0.00 0.00 0.02 0.00 0.00 0.00 0.00 0.00 0.00 0.00 0.00 0.00 0.00
0.02 0.02 0.03 0.04 0.04 0.03 0.02 0.01 0.01 0.03 0.02 0.02 0.03 0.02 0.00 0.00 0.00 0.01 0.03 0.01 0.01 0.02 0.00 0.02 0.03 0.01 0.00 0.00 0.00 0.00 0.00 0.00 0.00 0.00 0.00 0.02 0.02 0.01 0.00 0.00 0.00 0.00 0.00 0.00
0.02 0.02 0.03 0.04 0.03 0.02 0.02 0.02 0.01 0.02 0.02 0.01 0.00 0.01 0.00 0.00 0.00 0.03 0.03 0.02 0.04 0.01 0.03 0.04 0.03 0.01 0.00 0.00 0.00 0.00 0.00 0.00 0.00 0.00 0.00 0.00 0.01 0.00 0.01 0.01 0.02 0.01 0.01 0.02
0.02 0.02 0.03 0.03 0.02 0.01 0.03 0.03 0.01 0.01 0.01 0.00 0.02 0.01 0.00 0.00 0.00 0.03 0.02 0.02 0.08 0.05 0.03 0.04 0.02 0.02 0.02 0.00 0.01 0.00 0.00 0.00 0.00 0.00 0.00 0.00 0.00 0.00 0.00 0.01 0.02 0.03 0.02 0.02
0.02 0.02 0.02 0.02 0.01 0.02 0.04 0.02 0.01 0.01 0.02 0.02 0.02 0.01 0.00 0.00 0.00 0.03 0.01 0.03 0.06 0.07 0.02 0.01 0.02 0.01 0.03 0.01 0.00 0.00 0.00 0.00 0.00 0.00 0.00 0.00 0.00 0.00 0.00 0.00 0.00 0.01 0.01 0.01
0.01 0.01 0.01 0.01 0.02 0.02 0.01 0.00 0.00 0.00 0.01 0.01 0.00 0.00 0.00 0.00 0.00 0.00 0.01 0.02 0.07 0.08 0.05 0.03 0.03 0.02 0.03 0.01 0.00 0.00 0.00 0.00 0.00 0.00 0.00 0.00 0.00 0.00 0.00 0.00 0.00 0.00 0.00 0.00
0.01 0.01 0.01 0.01 0.01 0.00 0.00 0.00 0.00 0.00 0.00 0.00 0.00 0.00 0.00 0.00 0.00 0.01 0.01 0.03 0.07 0.07 0.07 0.05 0.06 0.06 0.10 0.05 0.00 0.00 0.00 0.00 0.00 0.00 0.00 0.00 0.00 0.00 0.00 0.00 0.00 0.00 0.00 0.00
0.01 0.00 0.00 0.00 0.01 0.00 0.00 0.00 0.00 0.00 0.01 0.00 0.00 0.00 0.00 0.00 0.03 0.02 0.03 0.04 0.04 0.04 0.05 0.04 0.07 0.07 0.03 0.01 0.00 0.00 0.00 0.00 0.00 0.00 0.00 0.00 0.00 0.00 0.00 0.00 0.00 0.00 0.00 0.00
0.00 0.00 0.01 0.01 0.01 0.00 0.00 0.00 0.00 0.00 0.01 0.00 0.00 0.00 0.00 0.00 0.02 0.04 0.03 0.02 0.01 0.01 0.01 0.03 0.03 0.02 0.00 0.00 0.00 0.00 0.00 0.00 0.00 0.00 0.00 0.00 0.00 0.00 0.00 0.00 0.00 0.00 0.00 0.00
0.01 0.01 0.01 0.00 0.00 0.01 0.00 0.00 0.00 0.00 0.00 0.00 0.00 0.00 0.00 0.00 0.01 0.03 0.01 0.01 0.01 0.02 0.02 0.01 0.02 0.00 0.00 0.00 0.00 0.00 0.00 0.00 0.00 0.00 0.00 0.00 0.00 0.00 0.00 0.00 0.00 0.00 0.00 0.00
0.00 0.00 0.00 0.00 0.00 0.00 0.00 0.00 0.00 0.00 0.01 0.00 0.00 0.00 0.00 0.00 0.01 0.02 0.01 0.01 0.01 0.02 0.04 0.01 0.00 0.00 0.00 0.00 0.00 0.00 0.00 0.00 0.00 0.00 0.00 0.00 0.00 0.00 0.00 0.00 0.00 0.00 0.00 0.00
0.01 0.00 0.00 0.00 0.00 0.00 0.00 0.00 0.00 0.01 0.00 0.00 0.01 0.01 0.00 0.00 0.00 0.00 0.00 0.01 0.01 0.01 0.00 0.00 0.00 0.00 0.00 0.00 0.00 0.00 0.00 0.00 0.00 0.00 0.00 0.00 0.00 0.00 0.00 0.00 0.00 0.00 0.00 0.00
0.00 0.00 0.00 0.00 0.00 0.00 0.00 0.00 0.00 0.00 0.00 0.00 0.00 0.00 0.00 0.00 0.00 0.00 0.00 0.00 0.00 0.00 0.00 0.00 0.00 0.00 0.00 0.00 0.00 0.00 0.00 0.00 0.00 0.00 0.00 0.00 0.00 0.00 0.00 0.00 0.00 0.00 0.00 0.00
0.00 0.00 0.00 0.00 0.01 0.00 0.00 0.00 0.00 0.00 0.00 0.00 0.00 0.00 0.00 0.00 0.00 0.00 0.00 0.00 0.00 0.00 0.00 0.00 0.00 0.00 0.00 0.00 0.00 0.00 0.00 0.00 0.00 0.00 0.00 0.00 0.00 0.00 0.00 0.00 0.00 0.00 0.00 0.00
0.00 0.00 0.00 0.00 0.00 0.00 0.00 0.00 0.00 0.00 0.00 0.00 0.00 0.00 0.00 0.00 0.00 0.00 0.00 0.00 0.00 0.00 0.00 0.00 0.00 0.00 0.00 0.00 0.00 0.00 0.00 0.00 0.00 0.00 0.00 0.00 0.00 0.00 0.00 0.00 0.00 0.00 0.00 0.00
0.00 0.01 0.00 0.00 0.00 0.00 0.00 0.00 0.00 0.00 0.00 0.00 0.00 0.00 0.00 0.00 0.00 0.00 0.00 0.00 0.00 0.00 0.00 0.00 0.00 0.00 0.00 0.00 0.00 0.00 0.00 0.00 0.00 0.00 0.00 0.00 0.00 0.00 0.00 0.00 0.00 0.00 0.00 0.00
MSLP
1009.92 1010.19 1010.53 1010.91 1011.32 1011.87 1012.81 1012.88 1013.20 1013.41 1014.14 1015.28 1014.49 1011.68 1010.42 1009.93 1008.55 1008.34 1007.75 1007.15 1006.73 1006.32 1005.51 1005.00 1004.55 1004.12 1003.65 1003.08 1003.35 1002.69 1002.77 1003.11 1003.19 1001.89 1001.07 1000.71 1000.96 1002.10 1003.30 1004.80 1006.35 1006.86 1006.94 1005.66
1008.52 1008.77 1009.16 1009.62 1010.15 1010.75 1011.45 1011.53 1012.41 1012.77 1012.76 1012.51 1011.74 1011.02 1010.00 1009.89 1009.51 1008.76 1008.20 1007.46 1006.98 1006.58 1006.28 1006.44 1005.00 1004.68 1004.12 1004.30 1004.91 1004.15 1002.69 1002.37 1002.88 1002.12 1001.11 1000.46 1000.43 1001.48 1002.23 1003.35 1004.63 1005.71 1006.04 1004.44
1006.81 1007.13 1007.55 1008.08 1008.74 1009.32 1010.43 1010.69 1011.36 1011.61 1011.52 1010.19 1009.42 1009.36 1008.78 1009.51 1009.32 1008.88 1008.38 1007.56 1007.74 1007.05 1006.63 1005.99 1005.34 1004.59 1004.62 1004.74 1004.83 1004.58 1003.69 1001.91 1001.60 1000.90 1001.06 1000.95 1000.70 1000.91 1001.43 1002.41 1003.55 1004.21 1004.32 1003.83
1005.09 1005.38 1005.88 1006.45 1007.12 1007.89 1009.01 1008.76 1008.75 1007.92 1008.12 1008.00 1008.97 1009.88 1008.72 1008.49 1008.58 1007.87 1007.50 1007.46 1006.96 1006.45 1006.99 1006.21 1005.82 1005.50 1005.36 1004.82 1005.19 1005.39 1004.83 1002.99 1001.81 1001.20 1001.32 1000.99 1000.69 1000.88 1001.08 1001.47 1001.92 1002.24 1002.55 1002.42
1003.48 1003.82 1004.27 1004.75 1005.48 1006.50 1007.03 1006.95 1007.34 1007.28 1006.69 1008.08 1009.06 1008.95 1007.28 1006.60 1006.45 1007.12 1006.75 1006.57 1006.03 1006.93 1006.66 1005.74 1005.86 1005.78 1005.81 1006.20 1006.16 1006.96 1005.41 1004.32 1002.75 1001.72 1001.18 1000.88 1000.62 1000.40 1000.18 1000.38 1000.62 1000.79 1000.91 1000.83
1002.08 1002.51 1003.01 1003.56 1004.15 1005.40 1004.56 1005.31 1006.05 1005.91 1005.75 1006.80 1007.82 1005.94 1004.07 1004.94 1007.32 1006.57 1006.09 1005.48 1006.30 1005.89 1004.71 1006.32 1005.90 1005.31 1005.52 1006.10 1006.94 1008.42 1008.22 1006.64 1004.03 1002.67 1001.96 1001.26 1000.39 999.26 999.79 999.48 999.56 999.62 999.84 999.71
1000.54 1001.03 1001.59 1002.12 1002.73 1003.47 1004.18 1004.30 1005.01 1005.35 1004.65 1005.18 1004.41 1004.68 1005.49 1005.53 1006.12 1006.07 1005.57 1005.16 1005.05 1003.60 1005.77 1006.36 1006.50 1006.77 1006.84 1006.91 1007.11 1008.34 1008.87 1008.75 1005.65 1003.72 1003.03 1001.81 999.17 998.87 999.18 998.95 998.73 998.76 998.34 998.24
998.75 999.24 999.83 1000.51 1001.20 1002.09 1003.21 1003.59 1003.99 1003.53 1003.90 1003.81 1004.17 1004.56 1004.50 1004.89 1005.79 1005.57 1005.27 1004.01 1004.10 1004.44 1005.31 1006.34 1007.09 1007.44 1007.55 1007.14 1007.11 1008.03 1008.28 1009.67 1007.19 1005.17 1003.47 1002.06 999.96 998.81 998.31 998.09 997.92 997.60 997.57 997.45
996.56 997.23 997.98 998.84 999.76 1000.63 1002.06 1002.86 1003.42 1003.34 1003.31 1002.21 1001.86 1002.69 1003.33 1003.96 1004.61 1005.07 1004.42 1004.00 1004.44 1004.65 1005.19 1006.40 1007.29 1007.40 1007.07 1006.73 1006.70 1007.33 1007.86 1009.48 1009.33 1006.97 1004.20 1001.89 999.66 998.97 997.93 997.30 997.08 997.15 996.99 997.21
994.38 995.11 996.05 997.09 998.15 999.44 1000.81 1001.58 1002.49 1003.23 1002.96 1002.39 1001.87 1001.27 1001.57 1002.34 1003.31 1003.84 1003.92 1003.99 1004.40 1004.70 1005.46 1006.60 1007.02 1007.24 1006.97 1006.55 1006.28 1007.57 1009.03 1008.38 1008.64 1007.71 1005.03 1001.46 999.06 998.24 997.89 997.90 997.85 996.71 996.68 996.79
992.35 993.22 994.24 995.39 996.76 998.06 999.85 1000.62 1001.69 1002.29 1002.64 1001.84 1001.13 1000.73 1000.64 1001.21 1002.04 1002.50 1002.69 1004.35 1004.00 1004.62 1005.55 1006.44 1006.84 1006.77 1007.13 1006.22 1006.14 1006.13 1006.89 1007.47 1007.47 1006.01 1004.54 1002.52 1000.58 998.66 998.59 998.02 997.28 997.05 996.52 996.37
990.83 991.72 992.68 993.92 995.27 996.81 998.99 999.93 1000.94 1002.09 1002.89 1002.32 1000.89 1000.46 1000.22 1000.01 1000.39 1001.48 1002.07 1002.33 1002.83 1003.50 1004.11 1005.06 1005.70 1006.11 1005.98 1005.65 1005.42 1004.57 1004.91 1004.27 1004.43 1004.24 1003.36 1001.45 1000.98 1001.05 999.55 999.09 998.47 997.51 996.37 995.73
989.66 990.44 991.06 992.48 994.22 995.88 997.70 999.03 1000.53 1002.36 1002.63 1002.10 1001.72 1000.35 1000.17 1000.01 1000.12 1000.68 1001.95 1001.90 1002.16 1002.92 1003.09 1004.28 1004.67 1004.92 1004.87 1004.71 1003.67 1003.35 1002.78 1002.67 1002.76 1002.27 1002.08 1001.52 1001.16 1000.04 999.71 999.88 999.28 998.44 996.57 996.00
988.98 989.91 990.85 992.28 993.84 995.56 997.47 998.58 999.84 1000.80 1001.32 1001.31 1000.70 1000.41 999.92 999.80 1000.16 1000.66 1001.09 1001.76 1001.68 1001.85 1002.89 1003.98 1004.51 1004.56 1003.24 1003.58 1002.88 1002.68 1001.94 1002.10 1002.19 1001.95 1001.21 1001.49 1000.76 1000.58 1000.32 999.84 999.48 998.43 997.48 996.61
989.93 990.71 991.68 992.93 994.44 996.16 997.49 998.64 999.43 999.69 999.77 1000.25 1000.54 1000.30 999.78 999.72 999.96 1000.68 1001.22 1001.18 1001.72 1002.47 1002.99 1003.25 1003.65 1003.54 1003.72 1002.77 1002.58 1002.16 1001.48 1001.56 1001.78 1000.96 1000.18 1000.21 999.82 999.63 1000.22 999.82 999.29 999.37 998.53 997.85
991.12 991.83 992.78 994.14 995.24 996.32 997.89 999.38 999.84 999.45 999.01 1000.06 1000.38 999.91 999.89 1000.03 1000.06 1000.75 1001.09 1001.42 1002.14 1002.42 1002.99 1003.68 1003.03 1002.58 1003.09 1003.50 1003.30 1002.02 1001.15 1000.56 1000.46 1000.26 999.69 998.97 998.78 999.04 999.47 999.35 999.16 998.95 998.98 997.81
992.71 993.45 994.34 995.44 996.31 996.96 997.28 997.65 997.85 998.98 999.99 999.88 1000.26 1000.45 1000.71 1000.43 1000.52 1000.80 1001.19 1001.33 1002.05 1003.11 1003.52 1003.54 1003.48 1003.06 1002.72 1003.77 1004.59 1004.31 1003.61 1001.94 1000.86 1000.33 999.74 999.45 999.32 999.59 999.46 999.30 999.23 999.02 998.58 997.53
994.16 994.79 995.56 996.12 996.51 997.08 997.73 998.13 998.53 998.95 998.88 999.44 1000.86 1001.63 1001.44 1001.60 1001.26 1001.68 1001.58 1002.07 1002.68 1003.27 1003.73 1003.36 1003.26 1003.69 1004.00 1005.51 1006.45 1005.70 1004.84 1003.78 1002.51 1001.84 1001.31 1001.02 1000.50 1000.22 1000.04 999.98 1000.21 1000.11 999.85 999.20
995.59 995.97 996.30 996.99 997.50 997.86 998.34 998.04 998.12 998.09 999.20 1000.32 1001.30 1001.99 1002.71 1002.57 1001.98 1001.83 1002.32 1002.31 1002.92 1002.73 1003.73 1003.01 1003.10 1004.57 1006.82 1008.35 1008.24 1007.85 1007.28 1006.23 1004.90 1003.45 1003.03 1002.52 1002.09 1001.72 1001.37 1001.68 1002.06 1001.85 1001.96 1001.67
995.95 996.27 997.10 998.19 998.53 998.13 997.97 998.41 998.90 999.45 1000.02 1000.69 1001.86 1002.28 1003.06 1003.23 1003.15 1002.61 1002.67 1002.43 1002.90 1003.31 1003.44 1002.64 1004.00 1007.36 1009.27 1009.69 1009.61 1009.19 1008.51 1007.49 1006.57 1005.50 1005.07 1004.60 1004.16 1004.00 1004.44 1004.85 1004.89 1004.95 1005.25 1005.36
997.28 998.16 998.65 999.16 998.86 998.84 999.03 999.62 1000.21 1000.66 1001.13 1001.37 1001.88 1002.35 1002.82 1003.20 1003.61 1002.80 1002.65 1002.95 1002.92 1003.48 1003.30 1003.87 1005.92 1008.96 1010.45 1010.81 1010.72 1010.42 1009.73 1009.00 1008.53 1007.88 1007.55 1007.17 1006.96 1006.62 1006.64 1007.05 1007.34 1007.38 1007.87 1008.01
997.60 998.29 999.41 999.61 999.70 1000.06 1000.35 1001.22 1001.53 1001.58 1001.94 1001.96 1002.08 1002.39 1002.68 1003.28 1003.28 1002.94 1003.11 1003.18 1003.30 1003.64 1003.84 1005.43 1008.79 1011.23 1011.72 1011.66 1011.66 1011.48 1011.07 1010.59 1010.15 1009.70 1009.35 1009.12 1008.80 1008.82 1008.93 1009.24 1009.60 1009.99 1010.24 1010.70
998.24 998.68 1000.21 1000.89 1001.67 1001.84 1002.24 1002.75 1002.64 1002.74 1002.92 1002.90 1002.36 1002.49 1002.96 1003.31 1003.07 1002.86 1003.06 1003.56 1004.24 1004.49 1006.25 1009.39 1012.05 1012.73 1012.72 1012.61 1012.75 1012.65 1012.41 1012.03 1011.54 1011.42 1011.18 1010.82 1010.69 1010.78 1010.94 1011.30 1011.73 1011.90 1012.16 1012.89
999.67 1000.74 1002.47 1003.24 1004.18 1004.72 1004.97 1004.78 1004.36 1004.14 1003.76 1003.47 1003.01 1002.68 1002.88 1003.15 1003.25 1003.13 1003.61 1004.99 1005.47 1007.09 1009.56 1012.58 1013.78 1013.99 1013.96 1014.04 1014.12 1013.82 1013.79 1013.56 1013.35 1013.25 1012.99 1012.71 1012.85 1013.14 1013.27 1013.35 1013.70 1013.76 1014.18 1014.93
1002.51 1003.45 1005.39 1006.27 1006.50 1006.46 1006.12 1005.64 1004.86 1004.70 1004.24 1003.62 1003.06 1003.03 1003.20 1003.75 1004.20 1004.59 1005.14 1006.99 1009.41 1011.17 1013.46 1014.61 1015.21 1015.35 1015.34 1015.29 1015.29 1015.10 1015.08 1014.93 1014.80 1014.87 1014.79 1014.95 1014.97 1014.85 1015.15 1015.49 1015.67 1015.80 1016.21 1016.65
1005.33 1007.01 1007.82 1007.90 1007.73 1007.51 1006.66 1006.21 1005.62 1005.06 1004.57 1003.99 1003.61 1003.61 1004.00 1005.52 1006.61 1007.56 1008.93 1010.31 1012.54 1014.31 1015.20 1015.85 1016.22 1016.50 1016.46 1016.40 1016.44 1016.35 1016.27 1016.22 1016.26 1016.38 1016.49 1016.61 1016.71 1016.77 1017.09 1017.28 1017.42 1017.74 1018.00 1018.31
1007.45 1008.89 1009.19 1008.93 1008.77 1008.55 1007.86 1007.32 1006.56 1005.60 1004.88 1004.79 1004.90 1006.14 1007.17 1007.49 1008.80 1010.70 1012.27 1014.21 1015.64 1016.34 1017.02 1017.38 1017.49 1017.65 1017.82 1017.78 1017.63 1017.66 1017.71 1017.69 1017.73 1017.87 1018.08 1018.15 1018.21 1018.13 1018.19 1018.48 1019.22 1019.44 1019.80 1019.97
Thickness
5425 5428 5429 5430 5432 5432 5427 5429 5430 5437 5433 5426 5441 5478 5500 5515 5526 5528 5533 5537 5544 5552 5566 5570 5580 5589 5605 5620 5623 5628 5639 5624 5607 5631 5659 5670 5666 5655 5650 5609 5619 5624 5606 5621
5425 5427 5429 5430 5430 5429 5429 5430 5425 5428 5433 5442 5456 5481 5496 5502 5506 5514 5522 5528 5536 5549 5555 5551 5571 5580 5596 5598 5590 5606 5633 5620 5600 5616 5643 5657 5654 5655 5659 5651 5632 5617 5598 5620
5427 5429 5430 5430 5430 5430 5424 5423 5419 5424 5432 5462 5476 5482 5495 5489 5502 5506 5515 5526 5524 5534 5538 5552 5560 5577 5589 5588 5590 5591 5602 5624 5616 5610 5627 5640 5638 5647 5656 5648 5609 5619 5610 5635
5428 5429 5430 5430 5430 5428 5421 5419 5424 5450 5454 5464 5466 5466 5490 5492 5489 5511 5515 5516 5525 5535 5526 5541 5548 5564 5569 5585 5582 5585 5587 5596 5622 5630 5634 5642 5642 5644 5647 5642 5643 5629 5638 5638
5425 5426 5427 5428 5427 5422 5419 5410 5425 5441 5462 5454 5447 5460 5483 5500 5512 5505 5512 5514 5530 5523 5523 5540 5543 5554 5556 5554 5563 5561 5583 5585 5602 5607 5629 5637 5631 5639 5645 5647 5646 5647 5648 5643
5420 5421 5421 5422 5422 5412 5423 5419 5423 5437 5452 5445 5437 5473 5507 5504 5488 5498 5509 5520 5514 5516 5540 5528 5536 5550 5552 5548 5549 5534 5545 5560 5590 5590 5611 5617 5598 5628 5635 5645 5653 5654 5630 5650
5414 5414 5414 5416 5415 5411 5409 5410 5418 5418 5430 5439 5458 5475 5476 5485 5484 5488 5498 5508 5513 5547 5525 5523 5523 5524 5529 5535 5542 5535 5520 5528 5568 5573 5587 5572 5628 5642 5641 5638 5651 5656 5659 5665
5406 5407 5407 5408 5408 5404 5398 5399 5406 5418 5419 5437 5450 5454 5467 5477 5471 5477 5488 5512 5522 5523 5518 5513 5511 5493 5511 5525 5534 5529 5531 5512 5540 5566 5582 5593 5610 5632 5638 5634 5636 5659 5658 5666
5399 5397 5397 5396 5396 5395 5389 5391 5400 5411 5416 5426 5467 5459 5463 5460 5459 5463 5479 5502 5505 5511 5508 5494 5490 5494 5517 5522 5528 5531 5526 5507 5513 5543 5569 5573 5610 5626 5652 5654 5617 5661 5662 5660
5396 5393 5390 5389 5390 5387 5384 5389 5394 5396 5399 5422 5444 5454 5462 5472 5463 5460 5476 5486 5488 5497 5471 5476 5482 5493 5513 5510 5516 5504 5493 5496 5510 5521 5543 5579 5619 5637 5646 5609 5615 5659 5661 5660
5391 5386 5383 5381 5380 5379 5374 5383 5387 5393 5397 5423 5437 5455 5462 5467 5463 5463 5480 5466 5479 5474 5464 5471 5473 5475 5500 5519 5526 5517 5513 5511 5519 5536 5545 5560 5595 5620 5614 5624 5644 5650 5655 5659
5383 5379 5375 5371 5372 5374 5371 5374 5384 5385 5387 5409 5434 5445 5457 5468 5476 5472 5470 5480 5487 5480 5482 5482 5486 5477 5496 5517 5512 5534 5521 5537 5533 5546 5551 5579 5589 5586 5604 5610 5621 5634 5647 5661
5378 5375 5372 5369 5369 5372 5373 5375 5379 5375 5384 5406 5415 5440 5451 5461 5467 5468 5458 5472 5482 5476 5488 5484 5493 5491 5493 5486 5515 5532 5546 5549 5546 5557 5565 5569 5575 5590 5599 5598 5606 5618 5638 5647
5375 5377 5375 5371 5373 5374 5374 5381 5387 5391 5398 5401 5419 5432 5447 5457 5460 5463 5466 5471 5483 5487 5483 5480 5475 5480 5516 5493 5529 5526 5543 5544 5548 5553 5563 5563 5575 5579 5581 5589 5598 5610 5623 5634
5371 5374 5374 5374 5373 5373 5378 5384 5393 5402 5412 5415 5425 5435 5449 5455 5458 5459 5462 5470 5478 5473 5477 5473 5488 5494 5499 5515 5523 5526 5548 5544 5539 5539 5562 5564 5576 5578 5575 5580 5588 5593 5606 5613
5371 5374 5375 5374 5376 5380 5378 5374 5387 5406 5419 5425 5418 5439 5445 5451 5456 5455 5460 5463 5470 5472 5468 5466 5494 5511 5504 5490 5509 5537 5552 5554 5556 5556 5569 5577 5583 5580 5580 5584 5588 5593 5597 5607
5371 5373 5375 5374 5378 5386 5396 5403 5415 5413 5413 5421 5414 5419 5433 5444 5453 5454 5455 5464 5462 5461 5467 5469 5483 5498 5508 5474 5485 5502 5512 5537 5551 5552 5564 5570 5571 5570 5573 5579 5582 5587 5593 5606
5373 5376 5378 5382 5388 5393 5397 5404 5411 5416 5423 5426 5405 5409 5423 5431 5436 5440 5450 5451 5454 5456 5453 5474 5484 5493 5492 5469 5470 5485 5495 5512 5528 5535 5544 5549 5557 5562 5566 5571 5569 5571 5575 5584
5377 5380 5384 5387 5391 5395 5399 5411 5417 5423 5421 5409 5403 5419 5409 5418 5432 5439 5440 5448 5437 5464 5451 5473 5487 5468 5447 5440 5446 5458 5467 5480 5497 5515 5522 5530 5534 5543 5550 5549 5545 5553 5550 5555
5389 5392 5390 5384 5389 5400 5407 5409 5407 5409 5415 5417 5402 5411 5408 5416 5412 5421 5431 5426 5441 5439 5456 5478 5466 5435 5425 5426 5433 5443 5451 5467 5479 5490 5492 5500 5506 5517 5501 5499 5500 5500 5500 5500
5388 5382 5384 5386 5393 5399 5403 5396 5398 5408 5402 5411 5413 5409 5416 5412 5412 5431 5426 5426 5434 5444 5460 5466 5450 5420 5411 5416 5419 5427 5438 5449 5454 5466 5468 5471 5473 5477 5477 5472 5469 5470 5468 5467
5396 5394 5390 5392 5395 5396 5398 5386 5395 5399 5407 5410 5412 5414 5417 5411 5417 5430 5430 5446 5443 5454 5454 5447 5415 5395 5397 5405 5410 5415 5422 5430 5434 5440 5443 5446 5449 5449 5448 5445 5442 5440 5439 5436
5398 5396 5384 5389 5383 5395 5383 5401 5399 5405 5396 5402 5413 5422 5412 5413 5423 5433 5435 5452 5455 5447 5440 5402 5379 5381 5390 5396 5399 5401 5404 5409 5415 5416 5419 5423 5424 5424 5424 5421 5418 5418 5416 5410
5389 5385 5365 5371 5363 5365 5364 5369 5381 5388 5395 5397 5405 5417 5422 5419 5431 5437 5454 5432 5435 5431 5405 5370 5367 5372 5379 5381 5383 5388 5387 5390 5393 5395 5397 5400 5397 5394 5394 5393 5391 5392 5389 5383
5363 5362 5351 5345 5350 5354 5360 5370 5385 5386 5390 5398 5415 5418 5422 5427 5430 5430 5438 5424 5394 5383 5359 5359 5357 5360 5364 5367 5370 5374 5374 5375 5376 5375 5376 5374 5374 5374 5371 5368 5367 5366 5363 5359
5339 5328 5325 5328 5334 5340 5365 5372 5382 5389 5394 5402 5413 5425 5428 5414 5404 5402 5394 5392 5367 5351 5345 5347 5348 5348 5351 5354 5356 5358 5359 5360 5360 5359 5357 5355 5352 5350 5347 5345 5343 5340 5338 5334
5332 5314 5311 5320 5332 5345 5363 5369 5378 5389 5404 5414 5416 5401 5398 5405 5393 5380 5368 5349 5339 5335 5331 5332 5337 5338 5338 5339 5341 5341 5342 5343 5343 5342 5339 5336 5334 5333 5333 5328 5321 5318 5313 5309